map of TKD home
Great Circle Mapper logo
TKD - Airport
Location
City:  Takoradi, Ghana
ICAO / IATA:DGTK / TKD

Details
Type:Airport (Aerodrome, Airfield)
Use:Military
Latitude:453'46"N (4.896056)
Longitude:146'29"W (-1.774755)
Datum:WGS 1984
Elevation:21 ft (6 m)
Variation:4.30W (WMM2015 magnetic declination)
0.11 annual change
Runways:1
Longest:5745 × 148 ft (1751 × 45 m), paved

Time
Time Zone:UTC+0
Local Time:

Weather
TAF:DGTK 140530Z 1406/1506 23005G15KT 8000 FEW013 SCT100
TEMPO 1406/1408 VRB03KT 5000 BR SCT010 BKN100
BECMG 1421/1424 00000KT

Related Locations
Nearby:
Farthest:AIS: 12250 mi / 19714 km
Arorae Island, KI

Find:

   beyond  
but within

Other Information
Maps:
NOTAMs:
Links:
Sources:

  
flag of Ghana   

Sectional Chart

Flight Planning
at skyvector.com

Satellite Image

Google Maps Satellite view

 

Copyright © 2004-2016 Karl L. Swartz. All rights reserved.
The Great Circle Mapper name and logo are trademarks of the Great Circle Mapper.
All other trademarks mentioned herein belong to their respective owners.
Please see credits for attibutions and further copyright information.

  Follow gcmap on Facebook Follow gcmap on Twitter Follow gcmap on Google+ GCmap on LinkedIn

hCard Microformat

Geo Microformat